This demonstration page uses our WeatherBlox Daily Observations layout. Learn more.

Left ArrowRight Arrow

Hourly Observations for February 13, 2022

Temp ( °F °C ) Dew Point ( °F °C ) Humidity (%) Winds ( mph kmh ) Pressure ( in mb ) Visibility ( mi km ) Precip ( " mm )
12:15 am 00:15 Clear 36 2.3 13 -10.8 38 38 NW 9 15 30.28 1026 10 16 0.00 0.00
12:35 am 00:35 Clear 35 1.5 13 -10.6 41 41 NW 8 13 30.29 1026 10 16 0.00 0.00
12:55 am 00:55 Clear 32 0 13 -10.6 45 45 NW 9 15 30.31 1026 10 16 0.00 0.00
1:15 am 01:15 Clear 29 -1.4 12 -11 48 48 WNW 9 15 30.33 1027 10 16 0.00 0.00
1:35 am 01:35 Clear 29 -1.4 13 -10.8 49 49 NW 10 17 30.34 1027 10 16 0.00 0.00
1:55 am 01:55 Clear 29 -1.6 13 -10.5 51 51 NW 8 13 30.34 1027 10 16 0.00 0.00
2:15 am 02:15 Clear 27 -2.9 13 -10.6 56 56 NW 8 13 30.36 1028 10 16 0.00 0.00
2:35 am 02:35 Clear 29 -1.8 15 -9.6 56 56 NW 8 13 30.36 1028 10 16 0.00 0.00
2:55 am 02:55 Clear 28 -2.3 15 -9.5 58 58 WNW 7 11 30.38 1029 10 16 0.00 0.00
3:15 am 03:15 Clear 25 -3.7 13 -10.4 60 60 NW 7 11 30.39 1029 10 16 0.00 0.00
3:35 am 03:35 Clear 26 -3.6 15 -9.6 64 64 NW 10 17 30.40 1029 10 16 0.00 0.00
3:55 am 03:55 Clear 28 -2.3 16 -8.7 62 62 N 10 17 30.40 1029 10 16 0.00 0.00
4:15 am 04:15 Clear 27 -2.7 15 -9.6 59 59 N 13 20 30.41 1030 10 16 0.00 0.00
4:35 am 04:35 Clear 24 -4.3 13 -10.8 61 61 N 13 20 30.45 1031 10 16 0.00 0.00
4:55 am 04:55 Clear 23 -5.2 12 -11.1 64 64 N 10 17 30.46 1031 10 16 0.00 0.00
5:15 am 05:15 Clear 21 -6.3 11 -11.5 67 67 N 8 13 30.47 1032 10 16 0.00 0.00
5:35 am 05:35 Clear 19 -7.4 10 -12.2 69 69 N 9 15 30.48 1032 10 16 0.00 0.00
5:55 am 05:55 Clear 18 -8 10 -12.3 72 72 N 8 13 30.49 1032 10 16 0.00 0.00
6:15 am 06:15 Clear 16 -9.1 9 -13 74 74 N 7 11 30.50 1033 10 16 0.00 0.00
6:35 am 06:35 Clear 19 -7.5 11 -11.7 72 72 NNW 6 9 30.48 1032 10 16 0.00 0.00
6:55 am 06:55 Clear 17 -8.5 8 -13.1 70 70 N 7 11 30.48 1032 10 16 0.00 0.00
7:15 am 07:15 Clear 16 -8.7 10 -12.4 75 75 N 5 7 30.49 1033 10 16 0.00 0.00
7:35 am 07:35 Sunny 16 -9.1 9 -12.6 76 76 Calm 30.51 1033 10 16 0.00 0.00
7:55 am 07:55 Sunny 15 -9.5 9 -12.6 78 78 Calm 30.52 1034 10 16 0.00 0.00
8:15 am 08:15 Sunny 16 -8.9 10 -12.1 78 78 Calm 30.52 1034 10 16 0.00 0.00
8:35 am 08:35 Sunny 18 -8 11 -11.6 76 76 Calm 30.53 1034 10 16 0.00 0.00
8:55 am 08:55 Sunny 19 -7.2 12 -11 75 75 NE 5 7 30.53 1034 10 16 0.00 0.00
9:15 am 09:15 Sunny 19 -7.1 12 -11 74 74 NE 5 7 30.52 1033 10 16 0.00 0.00
9:35 am 09:35 Sunny 20 -6.9 13 -10.6 75 75 NE 6 9 30.51 1033 10 16 0.00 0.00
9:55 am 09:55 Sunny 20 -6.5 13 -10.5 74 74 Calm 30.51 1033 10 16 0.00 0.00
10:15 am 10:15 Sunny 21 -5.9 13 -10.4 71 71 Calm 30.51 1033 10 16 0.00 0.00
10:35 am 10:35 Sunny 23 -5 14 -10.1 68 68 Calm 30.51 1033 10 16 0.00 0.00
10:55 am 10:55 Sunny 25 -4 14 -10.1 63 63 Calm 30.51 1033 10 16 0.00 0.00
11:15 am 11:15 Sunny 26 -3.3 14 -9.9 61 61 SSW 3 6 30.48 1032 10 16 0.00 0.00
11:35 am 11:35 Sunny 28 -2.4 14 -9.8 57 57 Calm 30.46 1031 10 16 0.00 0.00
11:55 am 11:55 Sunny 29 -1.5 15 -9.7 54 54 SSW 7 11 30.45 1031 10 16 0.00 0.00
12:15 pm 12:15 Sunny 32 0 15 -9.7 48 48 SSW 10 17 30.42 1030 10 16 0.00 0.00
12:35 pm 12:35 Sunny 33 0.6 15 -9.4 47 47 SSW 8 13 30.39 1029 10 16 0.00 0.00
12:55 pm 12:55 Sunny 34 1.1 15 -9.5 45 45 S 8 13 30.37 1028 10 16 0.00 0.00
1:15 pm 13:15 Sunny 36 2 15 -9.5 43 43 SSW 10 17 30.35 1028 10 16 0.00 0.00
1:35 pm 13:35 Sunny 37 2.9 15 -9.4 40 40 SSW 12 19 30.32 1027 10 16 0.00 0.00
1:55 pm 13:55 Sunny 38 3.5 15 -9.6 38 38 SSW 14 22 30.29 1026 10 16 0.00 0.00
2:15 pm 14:15 Sunny 39 4.1 15 -9.5 37 37 S 12 19 30.27 1025 10 16 0.00 0.00
2:35 pm 14:35 Sunny 41 4.8 15 -9.3 36 36 SSW 15 24 30.24 1024 10 16 0.00 0.00
2:55 pm 14:55 Sunny 42 5.4 16 -9.1 35 35 SSW 14 22 30.21 1023 10 16 0.00 0.00
3:15 pm 15:15 Sunny 43 6.2 16 -8.9 33 33 SSW 13 20 30.21 1023 10 16 0.00 0.00
3:35 pm 15:35 Sunny 43 6.2 16 -9 33 33 SSW 14 22 30.20 1023 10 16 0.00 0.00
3:55 pm 15:55 Sunny 44 6.6 16 -9 32 32 SSW 18 30 30.18 1022 10 16 0.00 0.00
4:15 pm 16:15 Sunny 45 7.1 17 -8.6 32 32 SSW 15 24 30.17 1022 10 16 0.00 0.00
4:35 pm 16:35 Sunny 45 7.2 17 -8.5 32 32 S 15 24 30.16 1021 10 16 0.00 0.00
4:55 pm 16:55 Sunny 46 7.5 17 -8.5 31 31 S 16 26 30.15 1021 10 16 0.00 0.00
5:15 pm 17:15 Sunny 45 7.2 17 -8.5 32 32 S 15 24 30.13 1020 10 16 0.00 0.00
5:35 pm 17:35 Sunny 44 6.5 17 -8.6 33 33 S 12 19 30.12 1020 10 16 0.00 0.00
5:55 pm 17:55 Sunny 43 6.2 17 -8.6 34 34 S 12 19 30.13 1020 10 16 0.00 0.00
6:15 pm 18:15 Clear 40 4.7 16 -9 37 37 SSE 9 15 30.14 1021 10 16 0.00 0.00
6:55 pm 18:55 Clear 36 2.4 15 -9.5 41 41 S 9 15 30.16 1021 10 16 0.00 0.00
7:15 pm 19:15 Clear 34 1 15 -9.7 45 45 SSE 5 7 30.18 1022 10 16 0.00 0.00
7:35 pm 19:35 Clear 34 1.1 15 -9.2 47 47 S 10 17 30.16 1021 10 16 0.00 0.00
7:55 pm 19:55 Clear 34 1 16 -9.1 47 47 S 6 9 30.17 1022 10 16 0.00 0.00
8:15 pm 20:15 Clear 36 2.3 16 -9.1 43 43 S 12 19 30.14 1021 10 16 0.00 0.00
8:35 pm 20:35 Clear 37 2.5 16 -9 43 43 S 8 13 30.14 1021 10 16 0.00 0.00
8:55 pm 20:55 Clear 36 2.2 16 -9 44 44 S 8 13 30.14 1021 10 16 0.00 0.00
9:15 pm 21:15 Clear 35 1.5 16 -9.1 46 46 S 9 15 30.14 1021 10 16 0.00 0.00
9:35 pm 21:35 Clear 34 1 16 -9.1 47 47 S 9 15 30.15 1021 10 16 0.00 0.00
9:55 pm 21:55 Clear 33 0.6 16 -9 49 49 S 10 17 30.15 1021 10 16 0.00 0.00
10:15 pm 22:15 Clear 34 1.2 17 -8.5 49 49 SSW 10 17 30.14 1021 10 16 0.00 0.00
10:35 pm 22:35 Clear 34 0.9 17 -8.5 50 50 SW 5 7 30.16 1021 10 16 0.00 0.00
10:55 pm 22:55 Clear 34 1.1 17 -8.3 50 50 SW 5 7 30.15 1021 10 16 0.00 0.00
11:15 pm 23:15 Clear 33 0.7 17 -8.6 50 50 W 6 9 30.17 1022 10 16 0.00 0.00
11:35 pm 23:35 Clear 32 0.1 17 -8.4 53 53 W 7 11 30.18 1022 10 16 0.00 0.00
11:55 pm 23:55 Clear 33 0.4 17 -8.5 52 52 W 8 13 30.18 1022 10 16 0.00 0.00

Powered by AerisWeather